Drummond Island, MI

8:27 PM EST on December 05, 2016 (GMT -0500)
Drummond Island

Weather History for KDRM - December, 2013

Change the Weather History Date:

Friday, December 27, 2013

  Actual Average (KCIU) Record (KCIU)
Temperature  
Mean Temperature 14 °F -  
Max Temperature 33 °F 22 °F 48 °F (2008)
Min Temperature -4 °F 4 °F -24 °F (1993)
Degree Days  
Heating Degree Days 51    
Moisture  
Dew Point 13 °F    
Average Humidity 83    
Maximum Humidity 90    
Minimum Humidity 76    
Precipitation  
Precipitation 0.00 in - - ()
Sea Level Pressure  
Sea Level Pressure 30.05 in    
Wind  
Wind Speed 3 mph (SSW)    
Max Wind Speed 10 mph    
Max Gust Speed 17 mph    
Visibility 10 miles    
Events Snow    
Averages and records for this station are not official NWS values.
T = Trace of Precipitation, MM = Missing Value Source: NWS Daily Summary

Daily Weather History Graph

Daily Weather History Graph

Search for Another Location

Airport or City:

Trip Planner

Search our weather history database for the weather conditions in past years. The results will help you decide how hot, cold, wet, or windy it might be!

Date:

Astronomy

Dec. 27, 2013 Rise Set
Actual Time 8:16 AM EST 4:56 PM EST
Civil Twilight 7:41 AM EST 5:30 PM EST
Nautical Twilight 7:03 AM EST 6:08 PM EST
Astronomical Twilight 6:27 AM EST 6:45 PM EST
Moon 2:35 AM EST (12/27) 1:15 PM EST (12/27)
Length of Visible Light 9h 49m
Length of Day
8h 39m
Waning Crescent, 28% of the Moon is Illuminated
Dec 27
Waning Crescent
Jan 1
New
Jan 7
First Quarter
Jan 15
Full
Jan 24
Last Quarter

Hourly Weather History & Observations

Time (EST) Temp. Windchill Dew Point Humidity Pressure Visibility Wind Dir Wind Speed Gust Speed Precip Events Conditions
12:15 AM 5.0 °F - 2.1 °F 88% 30.14 in 10.0 mi Calm Calm - N/A   Clear
12:36 AM 6.1 °F - 2.8 °F 87% 30.14 in 10.0 mi Calm Calm - N/A   Clear
12:55 AM 7.5 °F - 5.2 °F 90% 30.13 in 10.0 mi Calm Calm - N/A   Clear
1:15 AM 7.2 °F 0.3 °F 4.1 °F 87% 30.14 in 10.0 mi WSW 3.5 mph - N/A   Clear
1:36 AM 9.9 °F 3.4 °F 6.8 °F 87% 30.14 in 10.0 mi WSW 3.5 mph - N/A   Clear
1:55 AM 10.6 °F - 6.8 °F 85% 30.14 in 10.0 mi Calm Calm - N/A   Clear
2:15 AM 10.4 °F - 5.7 °F 81% 30.14 in 10.0 mi Calm Calm - N/A   Clear
2:36 AM 9.3 °F - 5.0 °F 83% 30.15 in 10.0 mi Calm Calm - N/A   Clear
2:55 AM 9.1 °F - 4.8 °F 83% 30.14 in 10.0 mi Calm Calm - N/A   Clear
3:15 AM 9.3 °F - 4.8 °F 82% 30.15 in 10.0 mi Calm Calm - N/A   Clear
3:35 AM 6.6 °F - 1.8 °F 80% 30.15 in 10.0 mi Calm Calm - N/A   Clear
3:55 AM 6.6 °F - 2.1 °F 82% 30.16 in 10.0 mi Calm Calm - N/A   Clear
4:14 AM 9.9 °F - 4.6 °F 79% 30.16 in 10.0 mi Calm Calm - N/A   Clear
4:35 AM 9.5 °F - 4.8 °F 81% 30.16 in 10.0 mi Calm Calm - N/A   Clear
4:55 AM 7.7 °F - 3.4 °F 83% 30.16 in 10.0 mi Calm Calm - N/A   Clear
5:15 AM 2.3 °F - -1.3 °F 85% 30.16 in 10.0 mi Calm Calm - N/A   Clear
5:35 AM 0.3 °F - -2.4 °F 88% 30.16 in 10.0 mi Calm Calm - N/A   Clear
5:55 AM -0.0 °F - -2.9 °F 88% 30.17 in 10.0 mi Calm Calm - N/A   Clear
6:15 AM -1.7 °F - -4.7 °F 87% 30.17 in 10.0 mi Calm Calm - N/A   Clear
6:36 AM -1.5 °F - -4.5 °F 87% 30.18 in 10.0 mi Calm Calm - N/A   Clear
6:55 AM 2.3 °F - -0.8 °F 87% 30.18 in 10.0 mi Calm Calm - N/A   Clear
7:15 AM 1.9 °F - -1.8 °F 84% 30.18 in 10.0 mi Calm Calm - N/A   Clear
7:35 AM 0.1 °F - -3.3 °F 85% 30.17 in 10.0 mi Calm Calm - N/A   Clear
7:55 AM -4.7 °F - -8.3 °F 84% 30.18 in 10.0 mi Calm Calm - N/A   Clear
8:16 AM 1.0 °F - -1.7 °F 88% 30.18 in 10.0 mi Calm Calm - N/A   Clear
8:35 AM 0.7 °F - -3.1 °F 84% 30.17 in 10.0 mi Calm Calm - N/A   Clear
8:55 AM 5.4 °F - 2.3 °F 87% 30.18 in 10.0 mi Calm Calm - N/A   Clear
9:16 AM 9.3 °F - 5.7 °F 85% 30.18 in 10.0 mi Calm Calm - N/A   Clear
9:35 AM 11.7 °F - 8.2 °F 86% 30.18 in 10.0 mi Calm Calm - N/A   Mostly Cloudy
9:55 AM 14.7 °F 9.0 °F 10.0 °F 82% 30.18 in 10.0 mi WSW 3.5 mph - N/A   Overcast
10:16 AM 17.4 °F - 12.2 °F 80% 30.18 in 10.0 mi Calm Calm - N/A   Overcast
10:35 AM 17.6 °F - 12.9 °F 82% 30.18 in 10.0 mi Calm Calm - N/A   Mostly Cloudy
10:55 AM 19.9 °F - 14.4 °F 79% 30.18 in 10.0 mi Calm Calm - N/A   Overcast
11:15 AM 20.3 °F - 14.4 °F 78% 30.17 in 10.0 mi Calm Calm - N/A   Overcast
11:35 AM 21.2 °F 10.9 °F 15.8 °F 80% 30.16 in 10.0 mi SW 9.2 mph - N/A   Overcast
11:55 AM 21.6 °F 11.3 °F 15.3 °F 77% 30.15 in 10.0 mi SW 9.2 mph - N/A   Overcast
12:15 PM 21.7 °F 13.2 °F 15.6 °F 77% 30.15 in 10.0 mi SW 6.9 mph - N/A   Overcast
12:36 PM 22.1 °F 13.7 °F 16.0 °F 77% 30.13 in 10.0 mi SW 6.9 mph - N/A   Overcast
12:55 PM 22.6 °F 15.3 °F 16.5 °F 77% 30.13 in 10.0 mi SW 5.8 mph - N/A   Overcast
1:15 PM 22.8 °F 14.5 °F 17.1 °F 79% 30.11 in 10.0 mi SSW 6.9 mph - N/A   Overcast
1:36 PM 23.0 °F 13.9 °F 17.6 °F 80% 30.09 in 10.0 mi SSW 8.1 mph - N/A   Mostly Cloudy
1:55 PM 23.7 °F 16.6 °F 18.3 °F 80% 30.09 in 10.0 mi SW 5.8 mph - N/A   Mostly Cloudy
2:15 PM 24.8 °F 17.9 °F 19.0 °F 79% 30.07 in 10.0 mi SW 5.8 mph - N/A   Mostly Cloudy
2:36 PM 25.3 °F 16.0 °F 19.4 °F 78% 30.06 in 10.0 mi SSW 9.2 mph - N/A   Overcast
2:55 PM 25.7 °F 17.1 °F 19.4 °F 77% 30.06 in 10.0 mi SW 8.1 mph - N/A   Overcast
3:15 PM 25.9 °F 16.0 °F 19.2 °F 76% 30.05 in 10.0 mi SSW 10.4 mph - N/A   Overcast
3:36 PM 26.1 °F 16.8 °F 19.4 °F 76% 30.04 in 10.0 mi South 9.2 mph - N/A   Overcast
3:55 PM 26.4 °F 17.3 °F 20.3 °F 78% 30.03 in 10.0 mi South 9.2 mph - N/A   Overcast
4:16 PM 26.6 °F 17.5 °F 20.7 °F 78% 30.00 in 10.0 mi South 9.2 mph - N/A   Overcast
4:35 PM 26.6 °F 17.5 °F 20.3 °F 77% 29.99 in 10.0 mi South 9.2 mph - N/A   Overcast
4:55 PM 26.6 °F 16.8 °F 21.4 °F 81% 29.98 in 2.0 mi South 10.4 mph 17.3 mph N/A Snow Light Snow
5:16 PM 26.2 °F 17.1 °F 23.0 °F 88% 29.98 in 5.0 mi South 9.2 mph - N/A Snow Light Snow
5:35 PM 26.6 °F 18.2 °F 22.8 °F 86% 29.95 in 10.0 mi South 8.1 mph - N/A   Overcast
5:55 PM 27.3 °F 19.9 °F 22.1 °F 81% 29.95 in 10.0 mi South 6.9 mph - N/A   Overcast
6:16 PM 28.0 °F 20.0 °F 22.5 °F 80% 29.93 in 10.0 mi South 8.1 mph - N/A   Overcast
6:35 PM 28.4 °F 20.4 °F 22.8 °F 80% 29.91 in 10.0 mi South 8.1 mph 16.1 mph N/A   Overcast
6:55 PM 29.1 °F 20.6 °F 23.5 °F 80% 29.90 in 10.0 mi South 9.2 mph - N/A   Overcast
7:16 PM 29.3 °F 20.8 °F 23.9 °F 80% 29.88 in 10.0 mi South 9.2 mph - N/A   Overcast
7:35 PM 29.7 °F 21.3 °F 24.6 °F 81% 29.88 in 10.0 mi South 9.2 mph - N/A   Overcast
7:56 PM 29.8 °F 21.5 °F 25.2 °F 83% 29.86 in 10.0 mi South 9.2 mph - N/A   Overcast
8:15 PM 30.0 °F 23.2 °F 25.7 °F 84% 29.85 in 10.0 mi South 6.9 mph - N/A   Overcast
8:35 PM 30.2 °F 21.9 °F 26.1 °F 85% 29.84 in 10.0 mi South 9.2 mph - N/A   Overcast
8:56 PM 30.7 °F 24.1 °F 26.8 °F 85% 29.84 in 10.0 mi SSW 6.9 mph - N/A   Overcast
9:15 PM 31.1 °F 25.4 °F 27.3 °F 86% 29.84 in 10.0 mi SSW 5.8 mph - N/A   Overcast
9:35 PM 31.1 °F 26.4 °F 27.5 °F 87% 29.84 in 10.0 mi SSW 4.6 mph - N/A   Overcast
9:56 PM 31.5 °F 26.8 °F 27.9 °F 87% 29.83 in 7.0 mi South 4.6 mph - N/A   Overcast
10:15 PM 31.6 °F 27.0 °F 28.2 °F 87% 29.82 in 7.0 mi South 4.6 mph - N/A   Overcast
10:35 PM 32.0 °F 27.5 °F 28.4 °F 87% 29.81 in 7.0 mi SSW 4.6 mph - N/A   Overcast
10:56 PM 32.0 °F 25.6 °F 28.4 °F 87% 29.80 in 7.0 mi South 6.9 mph - N/A   Overcast
11:15 PM 32.0 °F - 28.8 °F 88% 29.80 in 7.0 mi Calm Calm - N/A   Overcast
11:36 PM 32.4 °F 29.1 °F 28.8 °F 87% 29.80 in 10.0 mi SW 3.5 mph - N/A   Overcast
11:55 PM 32.9 °F 27.5 °F 29.3 °F 87% 29.81 in 10.0 mi West 5.8 mph - N/A   Overcast